822  
ASUS41 KRLX 222210  
RWRRLX  
REGIONAL WEATHER ROUNDUP  
NATIONAL WEATHER SERVICE CHARLESTON WV  
500 PM EST WED JAN 22 2020  
 
NOTE: "FAIR" INDICATES FEW OR NO CLOUDS BELOW 12,000 FEET WITH NO  
SIGNIFICANT WEATHER AND/OR S TO VISIBILITY
.  
 
WVZ003-222300-  
NORTHERN PANHANDLE OF WEST VIRGINIA  
 
CITY SKY/WX TMP DP RH WIND PRES REMARKS
 
WHEELING FAIR 35 11 36 CALM 30.33F  

 
 
WVZ009-222300-  
NORTHWEST WEST VIRGINIA  
 
CITY SKY/WX TMP DP RH WIND PRES REMARKS
 
PARKERSBURG FAIR 37 15 40 NE3 30.34S  

 
 
WVZ006-222300-  
WESTERN WEST VIRGINIA  
 
CITY SKY/WX TMP DP RH WIND PRES REMARKS
 
HUNTINGTON FAIR 40 17 39 CALM 30.31F  

 
 
WVZ015-222300-  
WEST CENTRAL WEST VIRGINIA  
 
CITY SKY/WX TMP DP RH WIND PRES REMARKS
 
CHARLESTON FAIR 41 15 35 CALM 30.31F  

 
 
WVZ022-031-222300-  
NORTH CENTRAL WEST VIRGINIA  
 
CITY SKY/WX TMP DP RH WIND PRES REMARKS
 
MORGANTOWN FAIR 38 13 35 CALM 30.34F  
CLARKSBURG FAIR 40 13 33 CALM 30.33F  
BUCKHANNON FAIR 37 12 35 CALM 30.32S  

 
 
WVZ025-035-042-045-222300-  
SOUTHERN WEST VIRGINIA  
 
CITY SKY/WX TMP DP RH WIND PRES REMARKS
 
BECKLEY FAIR 42 13 30 E5 30.28S  
LOGAN FAIR 43 12 28 CALM 30.28F  
PINEVILLE FAIR 40 24 53 MISG 30.33S  
BLUEFIELD FAIR 41 9 26 SE5 30.27S  
LEWISBURG CLEAR 39 10 30 CALM 30.30F  

 
 
WVZ047-222300-  
NORTHERN MOUNTAINS OF WEST VIRGINIA  
 
CITY SKY/WX TMP DP RH WIND PRES REMARKS
 
ELKINS FAIR 41 10 28 N3 30.31R  

 
 
WVZ052-222300-  
EASTERN PANHANDLE OF WEST VIRGINIA  
 
CITY SKY/WX TMP DP RH WIND PRES REMARKS
 
MARTINSBURG FAIR 35 14 42 CALM 30.40R  
PETERSBURG FAIR 38 17 41 CALM 30.36S  

 
 
SOUTHEAST OHIO/NORTHEAST KENTUCKY  
 
CITY SKY/WX TMP DP RH WIND PRES REMARKS
 
ATHENS FAIR 37 14 39 CALM 30.33F  
ASHLAND FAIR 41 26 55 CALM 30.34F  

 
 
 
CLICK HERE TO GO TO PREVIOUS BULLETINS.

The Nexlab WV Page
The Nexlab OH Page
The Nexlab KY Page
The Nexlab VA Page Main Text Page